JBU887 KJFK-TNCM

Flight info

Callsign JBU887
Flight time N/A
Altitude 35000
Route SHIPP Y492 SQUAD/M075F350 DCT DARUX L456 HANCY/N0440F350 L456 THANK DCT SLUGO
Aircraft A320/M-SDE3FGHIRWY/LB1

Departure

Time 2026-05-07 05:35
Airport John F. Kennedy International Airport (KJFK)

Arrival

Time N/A
Airport Princess Juliana International Airport (TNCM)
Time Latitude Longitude Altitude Speed Heading
2026-05-07 05:19 40.64539 -73.77435 25 ft 0 kts 357°
2026-05-07 05:25 40.64535 -73.77435 22 ft 3 kts 357°
2026-05-07 05:25 40.64513 -73.77433 24 ft 2 kts 357°
2026-05-07 05:25 40.64488 -73.77435 25 ft 4 kts 19°
2026-05-07 05:25 40.64464 -73.77451 24 ft 4 kts 31°
2026-05-07 05:26 40.64445 -73.77465 27 ft 4 kts 30°
2026-05-07 05:26 40.64440 -73.77469 24 ft 0 kts 30°
2026-05-07 05:28 40.64441 -73.77468 24 ft 1 kts 30°
2026-05-07 05:28 40.64450 -73.77461 26 ft 2 kts 30°
2026-05-07 05:28 40.64464 -73.77443 24 ft 4 kts 54°
2026-05-07 05:29 40.64470 -73.77407 22 ft 5 kts 86°
2026-05-07 05:29 40.64473 -73.77358 23 ft 6 kts 86°
2026-05-07 05:29 40.64475 -73.77296 23 ft 7 kts 91°
2026-05-07 05:29 40.64470 -73.77225 24 ft 8 kts 107°
2026-05-07 05:30 40.64443 -73.77153 23 ft 9 kts 103°
2026-05-07 05:30 40.64427 -73.77060 21 ft 12 kts 98°
2026-05-07 05:30 40.64480 -73.76989 19 ft 14 kts
2026-05-07 05:30 40.64583 -73.76985 20 ft 15 kts
2026-05-07 05:31 40.64683 -73.77001 23 ft 11 kts 334°
2026-05-07 05:31 40.64751 -73.77054 23 ft 12 kts 314°
2026-05-07 05:31 40.64817 -73.77081 22 ft 12 kts 31°
2026-05-07 05:31 40.64881 -73.76972 20 ft 15 kts 56°
2026-05-07 05:32 40.64922 -73.76875 23 ft 10 kts 98°
2026-05-07 05:32 40.64891 -73.76789 22 ft 11 kts 121°
2026-05-07 05:32 40.64880 -73.76698 23 ft 11 kts 50°
2026-05-07 05:32 40.64951 -73.76643 21 ft 13 kts 32°
2026-05-07 05:33 40.65034 -73.76576 21 ft 15 kts 32°
2026-05-07 05:33 40.65103 -73.76500 21 ft 11 kts 81°
2026-05-07 05:33 40.65074 -73.76414 23 ft 10 kts 122°
2026-05-07 05:33 40.65027 -73.76353 22 ft 7 kts 194°
2026-05-07 05:34 40.64963 -73.76403 22 ft 31 kts 210°
2026-05-07 05:34 40.64585 -73.76700 20 ft 94 kts 210°
2026-05-07 05:34 40.63871 -73.77256 22 ft 142 kts 211°
2026-05-07 05:34 40.62902 -73.78017 64 ft 178 kts 211°
2026-05-07 05:35 40.61852 -73.78852 614 ft 176 kts 216°
2026-05-07 05:35 40.60805 -73.79693 1193 ft 176 kts 216°
2026-05-07 05:35 40.59717 -73.80573 1492 ft 194 kts 214°
2026-05-07 05:35 40.58848 -73.81011 1623 ft 214 kts 191°
2026-05-07 05:36 40.57309 -73.80631 1837 ft 243 kts 148°
2026-05-07 05:36 40.55733 -73.78327 2351 ft 269 kts 123°
2026-05-07 05:36 40.54786 -73.76158 3081 ft 276 kts 119°
2026-05-07 05:36 40.54186 -73.74632 3569 ft 281 kts 119°
2026-05-07 05:37 40.53309 -73.72353 4327 ft 285 kts 121°
2026-05-07 05:37 40.52398 -73.70028 5105 ft 288 kts 122°
2026-05-07 05:37 40.51449 -73.67680 5844 ft 293 kts 124°
2026-05-07 05:37 40.50467 -73.65319 6553 ft 296 kts 125°
2026-05-07 05:38 40.49454 -73.62932 7232 ft 300 kts 126°
2026-05-07 05:38 40.48425 -73.60528 7943 ft 304 kts 126°
2026-05-07 05:38 40.47379 -73.58092 8638 ft 307 kts 127°
2026-05-07 05:38 40.46320 -73.55636 9327 ft 311 kts 127°
2026-05-07 05:39 40.45245 -73.53151 9974 ft 315 kts 127°
2026-05-07 05:39 40.44126 -73.50580 10225 ft 334 kts 127°
2026-05-07 05:39 40.42984 -73.47943 11026 ft 328 kts 127°
2026-05-07 05:39 40.41872 -73.45349 11786 ft 327 kts 128°
2026-05-07 05:40 40.40743 -73.42728 12299 ft 336 kts 128°
2026-05-07 05:40 40.39548 -73.39987 12426 ft 356 kts 128°
2026-05-07 05:40 40.38298 -73.37135 12560 ft 375 kts 127°
2026-05-07 05:40 40.36965 -73.34094 12684 ft 393 kts 127°
2026-05-07 05:41 40.35579 -73.30921 12915 ft 407 kts 127°
2026-05-07 05:41 40.34170 -73.27666 13355 ft 414 kts 126°
2026-05-07 05:41 40.32741 -73.24366 13818 ft 418 kts 126°
2026-05-07 05:41 40.31239 -73.21087 14325 ft 420 kts 128°
2026-05-07 05:42 40.29666 -73.17865 14806 ft 422 kts 130°
2026-05-07 05:42 40.28032 -73.14645 15283 ft 425 kts 130°
2026-05-07 05:42 40.26373 -73.11421 15761 ft 429 kts 131°
2026-05-07 05:42 40.24701 -73.08168 16242 ft 433 kts 130°
2026-05-07 05:43 40.23026 -73.04875 16734 ft 437 kts 130°
2026-05-07 05:43 40.21347 -73.01539 17230 ft 441 kts 130°
2026-05-07 05:43 40.19662 -72.98162 17723 ft 445 kts 130°
2026-05-07 05:43 40.17964 -72.94754 18176 ft 449 kts 130°
2026-05-07 05:44 40.16250 -72.91325 18627 ft 452 kts 129°
2026-05-07 05:44 40.14521 -72.87874 19049 ft 456 kts 130°
2026-05-07 05:44 40.12773 -72.84397 19430 ft 460 kts 130°
2026-05-07 05:44 40.11005 -72.80892 19815 ft 464 kts 130°
2026-05-07 05:45 40.09244 -72.77341 20188 ft 469 kts 129°
2026-05-07 05:45 40.07531 -72.73682 20544 ft 475 kts 127°
2026-05-07 05:45 40.05854 -72.69941 20879 ft 480 kts 127°
2026-05-07 05:45 40.04183 -72.66138 21220 ft 484 kts 127°
2026-05-07 05:46 40.02501 -72.62306 21543 ft 487 kts 127°
2026-05-07 05:46 40.00801 -72.58470 21891 ft 488 kts 127°
2026-05-07 05:46 39.99092 -72.54657 22322 ft 488 kts 127°
2026-05-07 05:46 39.97381 -72.50887 22643 ft 491 kts 127°
2026-05-07 05:47 39.95608 -72.46994 22944 ft 495 kts 127°
2026-05-07 05:47 39.93887 -72.43151 23235 ft 498 kts 127°
2026-05-07 05:47 39.92157 -72.39220 23513 ft 502 kts 126°
2026-05-07 05:47 39.90425 -72.35243 23746 ft 505 kts 126°
2026-05-07 05:48 39.88690 -72.31254 23995 ft 507 kts 126°
2026-05-07 05:48 39.86941 -72.27252 24246 ft 510 kts 127°
2026-05-07 05:48 39.85167 -72.23223 24489 ft 512 kts 126°
2026-05-07 05:48 39.83413 -72.19259 24801 ft 512 kts 126°
2026-05-07 05:49 39.81634 -72.15250 25177 ft 511 kts 127°
2026-05-07 05:49 39.79855 -72.11249 25552 ft 511 kts 127°
2026-05-07 05:49 39.78079 -72.07251 25931 ft 510 kts 127°
2026-05-07 05:49 39.76301 -72.03247 26311 ft 510 kts 127°
2026-05-07 05:50 39.74525 -71.99257 26695 ft 510 kts 127°
2026-05-07 05:50 39.72732 -71.95288 27084 ft 509 kts 128°
2026-05-07 05:50 39.70912 -71.91349 27466 ft 508 kts 128°
2026-05-07 05:50 39.69074 -71.87434 27791 ft 507 kts 129°
2026-05-07 05:51 39.67225 -71.83524 28191 ft 507 kts 129°
2026-05-07 05:51 39.65384 -71.79624 28582 ft 507 kts 129°
2026-05-07 05:51 39.63551 -71.75719 28972 ft 507 kts 129°
2026-05-07 05:51 39.61722 -71.71812 29370 ft 507 kts 129°
2026-05-07 05:52 39.59896 -71.67903 29759 ft 507 kts 129°
2026-05-07 05:52 39.58071 -71.63996 30116 ft 507 kts 129°
2026-05-07 05:52 39.56240 -71.60078 30419 ft 507 kts 129°
2026-05-07 05:52 39.54407 -71.56166 30696 ft 508 kts 129°
2026-05-07 05:53 39.52565 -71.52245 30904 ft 511 kts 129°
2026-05-07 05:53 39.50730 -71.48357 31156 ft 512 kts 129°
2026-05-07 05:53 39.48844 -71.44379 31451 ft 513 kts 129°
2026-05-07 05:53 39.46997 -71.40484 31744 ft 513 kts 130°
2026-05-07 05:54 39.44905 -71.36734 32044 ft 504 kts 139°
2026-05-07 05:54 39.42543 -71.33523 32330 ft 493 kts 148°
2026-05-07 05:54 39.39900 -71.30783 32624 ft 481 kts 157°
2026-05-07 05:54 39.37073 -71.28570 32869 ft 469 kts 165°
2026-05-07 05:55 39.34128 -71.26872 33169 ft 460 kts 170°
2026-05-07 05:55 39.31152 -71.25343 33468 ft 461 kts 170°
2026-05-07 05:55 39.28174 -71.23804 33762 ft 461 kts 170°
2026-05-07 05:55 39.25196 -71.22253 34021 ft 462 kts 170°
2026-05-07 05:56 39.22223 -71.20700 34260 ft 462 kts 170°
2026-05-07 05:56 39.19239 -71.19143 34474 ft 463 kts 170°
2026-05-07 05:56 39.16242 -71.17584 34688 ft 464 kts 171°
2026-05-07 05:56 39.13240 -71.16029 34865 ft 465 kts 171°
2026-05-07 05:57 39.10235 -71.14479 34928 ft 468 kts 171°
2026-05-07 05:57 39.04097 -71.11320 34935 ft 480 kts 170°
2026-05-07 05:58 38.97834 -71.08090 34939 ft 488 kts 170°
2026-05-07 05:58 38.91532 -71.04823 34939 ft 489 kts 170°
2026-05-07 05:59 38.85221 -71.01570 34945 ft 489 kts 169°
2026-05-07 05:59 38.78897 -70.98332 34945 ft 489 kts 169°
2026-05-07 06:00 38.72621 -70.95114 34948 ft 489 kts 169°
2026-05-07 06:00 38.66297 -70.91885 34929 ft 489 kts 169°
2026-05-07 06:01 38.59961 -70.88651 34933 ft 491 kts 169°
2026-05-07 06:01 38.53594 -70.85404 34932 ft 493 kts 169°
2026-05-07 06:02 38.47198 -70.82157 34935 ft 495 kts 169°
2026-05-07 06:02 38.40796 -70.78911 34927 ft 496 kts 169°
2026-05-07 06:03 38.34365 -70.75654 34938 ft 497 kts 169°
2026-05-07 06:03 38.27926 -70.72398 34954 ft 498 kts 169°
2026-05-07 06:04 38.21473 -70.69129 34964 ft 499 kts 169°
2026-05-07 06:04 38.15017 -70.65883 34944 ft 499 kts 169°
2026-05-07 06:05 38.08543 -70.62638 34955 ft 500 kts 169°
2026-05-07 06:05 38.02068 -70.59389 34976 ft 501 kts 168°
2026-05-07 06:06 37.95627 -70.55912 34980 ft 507 kts 164°
2026-05-07 06:06 37.89302 -70.51865 34951 ft 511 kts 161°
2026-05-07 06:07 37.83037 -70.47703 34972 ft 512 kts 161°
2026-05-07 06:07 37.76680 -70.43639 34987 ft 512 kts 162°
2026-05-07 06:08 37.70284 -70.39691 34999 ft 512 kts 163°
2026-05-07 06:08 37.63874 -70.35743 34977 ft 512 kts 162°
2026-05-07 06:09 37.57467 -70.31770 34991 ft 513 kts 162°
2026-05-07 06:09 37.51060 -70.27771 35007 ft 514 kts 162°
2026-05-07 06:10 37.44669 -70.23783 35016 ft 514 kts 162°
2026-05-07 06:10 37.38251 -70.19798 35000 ft 514 kts 161°
2026-05-07 06:11 37.31820 -70.15834 35014 ft 515 kts 161°
2026-05-07 06:11 37.25381 -70.11872 35021 ft 515 kts 161°
2026-05-07 06:12 37.18938 -70.07908 35030 ft 516 kts 161°
2026-05-07 06:12 37.12487 -70.03926 35017 ft 516 kts 161°
2026-05-07 06:13 37.06022 -69.99966 35037 ft 517 kts 161°
2026-05-07 06:13 36.99560 -69.96012 35046 ft 517 kts 161°
2026-05-07 06:14 36.93087 -69.92053 35058 ft 517 kts 161°
2026-05-07 06:14 36.86658 -69.88137 35049 ft 518 kts 161°
2026-05-07 06:15 36.80172 -69.84199 35045 ft 518 kts 160°
2026-05-07 06:15 36.73691 -69.80252 35052 ft 519 kts 160°
2026-05-07 06:16 36.67192 -69.76304 35064 ft 519 kts 160°
2026-05-07 06:16 36.60696 -69.72378 35074 ft 519 kts 160°
2026-05-07 06:17 36.54192 -69.68443 35072 ft 519 kts 160°
2026-05-07 06:17 36.47730 -69.64542 35084 ft 519 kts 160°
2026-05-07 06:18 36.41230 -69.60629 35086 ft 519 kts 160°
2026-05-07 06:18 36.34724 -69.56719 35073 ft 520 kts 160°
2026-05-07 06:19 36.28200 -69.52806 35075 ft 521 kts 160°
2026-05-07 06:19 36.21664 -69.48907 35075 ft 521 kts 160°
2026-05-07 06:20 36.15043 -69.45373 35085 ft 513 kts 170°
2026-05-07 06:20 36.08158 -69.43390 35063 ft 508 kts 175°
2026-05-07 06:21 36.01241 -69.41546 35069 ft 509 kts 175°
2026-05-07 06:21 35.95489 -69.39988 35078 ft 510 kts 174°
2026-05-07 06:22 35.88546 -69.38108 35080 ft 510 kts 174°
2026-05-07 06:22 35.78106 -69.35311 35093 ft 512 kts 174°
2026-05-07 06:23 35.71188 -69.33467 35098 ft 512 kts 174°
2026-05-07 06:23 35.64212 -69.31599 35079 ft 513 kts 174°
2026-05-07 06:24 35.57234 -69.29728 35090 ft 514 kts 174°
2026-05-07 06:24 35.50226 -69.27856 35097 ft 515 kts 174°
2026-05-07 06:25 35.43221 -69.26008 35107 ft 515 kts 174°
2026-05-07 06:25 35.36210 -69.24161 35103 ft 516 kts 174°
2026-05-07 06:26 35.29230 -69.22301 35113 ft 516 kts 174°
2026-05-07 06:26 35.22203 -69.20438 35117 ft 517 kts 174°
2026-05-07 06:27 35.15161 -69.18579 35098 ft 517 kts 173°
2026-05-07 06:27 35.08097 -69.16719 35106 ft 518 kts 173°
2026-05-07 06:28 35.01079 -69.14871 35111 ft 518 kts 173°
2026-05-07 06:28 34.94023 -69.13015 35121 ft 519 kts 173°
2026-05-07 06:29 34.86955 -69.11162 35111 ft 519 kts 173°
2026-05-07 06:29 34.79880 -69.09314 35127 ft 520 kts 173°
2026-05-07 06:30 34.72852 -69.07482 35131 ft 520 kts 173°
2026-05-07 06:30 34.65766 -69.05633 35138 ft 520 kts 173°
2026-05-07 06:31 34.58668 -69.03784 35128 ft 520 kts 172°
2026-05-07 06:31 34.51576 -69.01940 35133 ft 521 kts 172°
2026-05-07 06:32 34.44522 -69.00103 35138 ft 521 kts 172°
2026-05-07 06:32 34.37427 -68.98264 35120 ft 521 kts 172°
2026-05-07 06:33 34.30322 -68.96423 35128 ft 521 kts 172°
2026-05-07 06:33 34.23264 -68.94612 35133 ft 521 kts 172°
2026-05-07 06:34 34.16150 -68.92787 35141 ft 521 kts 172°
2026-05-07 06:34 34.09043 -68.90960 35143 ft 522 kts 172°
2026-05-07 06:35 34.01943 -68.89130 35141 ft 522 kts 172°
2026-05-07 06:35 33.94856 -68.87316 35146 ft 522 kts 172°
2026-05-07 06:36 33.87754 -68.85499 35143 ft 522 kts 172°
2026-05-07 06:36 33.80679 -68.83690 35143 ft 522 kts 172°
2026-05-07 06:37 33.73526 -68.81865 35144 ft 523 kts 172°
2026-05-07 06:37 33.66439 -68.80067 35147 ft 523 kts 172°
2026-05-07 06:38 33.59308 -68.78261 35127 ft 523 kts 172°
2026-05-07 06:38 33.52182 -68.76456 35132 ft 523 kts 172°
2026-05-07 06:39 33.45092 -68.74661 35143 ft 524 kts 172°
2026-05-07 06:39 33.37944 -68.72849 35141 ft 524 kts 172°
2026-05-07 06:40 33.30813 -68.71029 35143 ft 524 kts 171°
2026-05-07 06:40 33.23668 -68.69232 35145 ft 524 kts 172°
2026-05-07 06:41 33.16566 -68.67449 35155 ft 524 kts 172°
2026-05-07 06:41 33.09426 -68.65664 35146 ft 524 kts 171°
2026-05-07 06:42 33.02288 -68.63880 35154 ft 524 kts 171°
2026-05-07 06:42 32.95127 -68.62088 35158 ft 524 kts 171°
2026-05-07 06:43 32.87991 -68.60295 35158 ft 524 kts 171°
2026-05-07 06:43 32.80886 -68.58519 35151 ft 524 kts 171°
2026-05-07 06:44 32.73747 -68.56742 35154 ft 524 kts 171°
2026-05-07 06:44 32.66606 -68.54970 35157 ft 524 kts 171°
2026-05-07 06:45 32.59455 -68.53196 35160 ft 524 kts 171°
2026-05-07 06:45 32.52307 -68.51427 35165 ft 524 kts 171°
2026-05-07 06:46 32.45191 -68.49663 35171 ft 523 kts 170°
2026-05-07 06:46 32.38049 -68.47892 35169 ft 523 kts 171°
2026-05-07 06:47 32.30972 -68.46152 35152 ft 523 kts 171°
2026-05-07 06:47 32.23840 -68.44405 35154 ft 523 kts 170°
2026-05-07 06:48 32.16715 -68.42655 35153 ft 523 kts 170°
2026-05-07 06:48 32.09587 -68.40908 35155 ft 523 kts 170°
2026-05-07 06:49 32.02450 -68.39160 35144 ft 523 kts 170°
2026-05-07 06:49 31.95320 -68.37405 35151 ft 523 kts 170°
2026-05-07 06:50 31.88228 -68.35666 35154 ft 523 kts 170°
2026-05-07 06:50 31.81077 -68.33929 35156 ft 524 kts 170°
2026-05-07 06:51 31.73933 -68.32191 35146 ft 524 kts 170°
2026-05-07 06:51 31.66783 -68.30449 35153 ft 523 kts 170°
2026-05-07 06:52 31.59696 -68.28729 35157 ft 523 kts 170°
2026-05-07 06:52 31.52537 -68.26992 35158 ft 523 kts 170°
2026-05-07 06:53 31.45441 -68.25277 35157 ft 524 kts 170°
2026-05-07 06:53 31.38295 -68.23548 35156 ft 524 kts 170°
2026-05-07 06:54 31.31148 -68.21826 35152 ft 524 kts 170°
2026-05-07 06:54 31.24000 -68.20105 35140 ft 524 kts 170°
2026-05-07 06:55 31.16893 -68.18401 35165 ft 523 kts 169°
2026-05-07 06:55 31.09761 -68.16693 35169 ft 522 kts 169°
2026-05-07 06:56 31.02644 -68.14987 35168 ft 521 kts 169°
2026-05-07 06:56 30.95538 -68.13273 35156 ft 521 kts 169°
2026-05-07 06:57 30.88485 -68.11581 35156 ft 520 kts 169°
2026-05-07 06:57 30.81386 -68.09893 35157 ft 520 kts 169°
2026-05-07 06:58 30.74289 -68.08212 35153 ft 520 kts 169°
2026-05-07 06:58 30.67201 -68.06525 35142 ft 520 kts 169°
2026-05-07 06:59 30.60117 -68.04842 35152 ft 519 kts 169°
2026-05-07 06:59 30.53072 -68.03168 35150 ft 519 kts 169°
2026-05-07 07:00 30.45989 -68.01486 35147 ft 519 kts 169°
2026-05-07 07:00 30.38888 -67.99813 35141 ft 519 kts 169°
2026-05-07 07:01 30.31844 -67.98155 35144 ft 519 kts 169°
2026-05-07 07:01 30.24717 -67.96466 35147 ft 519 kts 169°
2026-05-07 07:02 30.17669 -67.94798 35151 ft 519 kts 169°
2026-05-07 07:02 30.10590 -67.93131 35146 ft 519 kts 169°
2026-05-07 07:03 30.03509 -67.91469 35148 ft 518 kts 169°
2026-05-07 07:03 29.96477 -67.89827 35150 ft 518 kts 169°
2026-05-07 07:04 29.89402 -67.88171 35152 ft 518 kts 169°
2026-05-07 07:04 29.82332 -67.86515 35141 ft 518 kts 169°
2026-05-07 07:05 29.75253 -67.84864 35144 ft 518 kts 169°
2026-05-07 07:05 29.68229 -67.83230 35146 ft 518 kts 169°
2026-05-07 07:06 29.61152 -67.81587 35147 ft 518 kts 169°
2026-05-07 07:06 29.54090 -67.79940 35151 ft 518 kts 169°
2026-05-07 07:07 29.47019 -67.78306 35153 ft 518 kts 169°
2026-05-07 07:07 29.39964 -67.76672 35145 ft 518 kts 169°
2026-05-07 07:08 29.34084 -67.75306 35147 ft 518 kts 169°
2026-05-07 07:08 29.25863 -67.73403 35141 ft 517 kts 169°
2026-05-07 07:09 29.19996 -67.72048 35142 ft 517 kts 169°
2026-05-07 07:09 29.12937 -67.70420 35144 ft 517 kts 169°
2026-05-07 07:10 29.04740 -67.68533 35144 ft 517 kts 169°
2026-05-07 07:10 28.98833 -67.67179 35142 ft 516 kts 169°
2026-05-07 07:11 28.91837 -67.65577 35143 ft 516 kts 169°
2026-05-07 07:11 28.84775 -67.63951 35142 ft 516 kts 169°
2026-05-07 07:12 28.77729 -67.62334 35150 ft 516 kts 169°
2026-05-07 07:12 28.70724 -67.60736 35147 ft 515 kts 169°
2026-05-07 07:13 28.63673 -67.59130 35137 ft 516 kts 169°
2026-05-07 07:13 28.56681 -67.57535 35143 ft 516 kts 169°
2026-05-07 07:14 28.49642 -67.55929 35139 ft 516 kts 169°
2026-05-07 07:14 28.42593 -67.54330 35132 ft 516 kts 169°
2026-05-07 07:15 28.35549 -67.52737 35155 ft 514 kts 169°
2026-05-07 07:15 28.28537 -67.51147 35153 ft 513 kts 169°
2026-05-07 07:16 28.21548 -67.49564 35149 ft 512 kts 169°
2026-05-07 07:16 28.14602 -67.47992 35136 ft 511 kts 169°
2026-05-07 07:17 28.07628 -67.46406 35138 ft 510 kts 169°
2026-05-07 07:17 28.00665 -67.44836 35138 ft 510 kts 169°
2026-05-07 07:18 27.93704 -67.43276 35138 ft 510 kts 169°
2026-05-07 07:18 27.86775 -67.41723 35129 ft 510 kts 169°
2026-05-07 07:19 27.79827 -67.40166 35131 ft 509 kts 169°
2026-05-07 07:19 27.72868 -67.38596 35129 ft 509 kts 169°
2026-05-07 07:20 27.65902 -67.37032 35130 ft 509 kts 169°
2026-05-07 07:20 27.59326 -67.35565 35124 ft 509 kts 169°
2026-05-07 07:21 27.52368 -67.34017 35130 ft 509 kts 169°
2026-05-07 07:21 27.45424 -67.32459 35130 ft 509 kts 169°
2026-05-07 07:22 27.38471 -67.30910 35129 ft 509 kts 169°
2026-05-07 07:22 27.31565 -67.29381 35118 ft 509 kts 169°
2026-05-07 07:23 27.24610 -67.27831 35124 ft 508 kts 169°
2026-05-07 07:23 27.17666 -67.26290 35129 ft 508 kts 169°
2026-05-07 07:24 27.10734 -67.24745 35125 ft 508 kts 169°
2026-05-07 07:24 27.03795 -67.23204 35125 ft 508 kts 169°
2026-05-07 07:25 26.93423 -67.20921 35133 ft 507 kts 169°
2026-05-07 07:26 26.86506 -67.19395 35134 ft 506 kts 169°
2026-05-07 07:26 26.79577 -67.17856 35128 ft 506 kts 169°
2026-05-07 07:27 26.72715 -67.16341 35126 ft 505 kts 169°
2026-05-07 07:27 26.65812 -67.14835 35122 ft 504 kts 169°
2026-05-07 07:28 26.58911 -67.13328 35122 ft 504 kts 169°
2026-05-07 07:28 26.52024 -67.11815 35122 ft 504 kts 169°
2026-05-07 07:29 26.45179 -67.10306 35118 ft 503 kts 169°
2026-05-07 07:29 26.38298 -67.08794 35113 ft 503 kts 169°
2026-05-07 07:30 26.31424 -67.07293 35113 ft 503 kts 169°
2026-05-07 07:30 26.24541 -67.05796 35113 ft 503 kts 169°
2026-05-07 07:31 26.17703 -67.04306 35115 ft 503 kts 169°
2026-05-07 07:31 26.10828 -67.02808 35109 ft 503 kts 169°
2026-05-07 07:32 26.03952 -67.01310 35107 ft 503 kts 169°
2026-05-07 07:32 25.97067 -66.99811 35106 ft 503 kts 169°
2026-05-07 07:33 25.90223 -66.98322 35106 ft 503 kts 169°
2026-05-07 07:33 25.83340 -66.96827 35108 ft 503 kts 169°
2026-05-07 07:34 25.76463 -66.95342 35109 ft 503 kts 169°
2026-05-07 07:34 25.69588 -66.93853 35116 ft 503 kts 169°
2026-05-07 07:35 25.62742 -66.92380 35109 ft 503 kts 169°
2026-05-07 07:35 25.55859 -66.90895 35101 ft 503 kts 169°
2026-05-07 07:36 25.48977 -66.89410 35100 ft 503 kts 169°
2026-05-07 07:36 25.42100 -66.87930 35111 ft 503 kts 169°
2026-05-07 07:37 25.35215 -66.86455 35108 ft 503 kts 169°
2026-05-07 07:37 25.28375 -66.84991 35108 ft 503 kts 169°
2026-05-07 07:38 25.21490 -66.83510 35101 ft 504 kts 169°
2026-05-07 07:38 25.14594 -66.82027 35103 ft 504 kts 169°
2026-05-07 07:39 25.07710 -66.80557 35103 ft 504 kts 169°
2026-05-07 07:39 25.00848 -66.79084 35103 ft 504 kts 169°
2026-05-07 07:40 24.93984 -66.77616 35104 ft 504 kts 169°
2026-05-07 07:40 24.87094 -66.76152 35104 ft 503 kts 169°
2026-05-07 07:41 24.80301 -66.74706 35096 ft 492 kts 169°
2026-05-07 07:41 24.73581 -66.73271 35095 ft 491 kts 169°
2026-05-07 07:42 24.66870 -66.71838 35089 ft 491 kts 169°
2026-05-07 07:42 24.60204 -66.70426 35092 ft 491 kts 169°
2026-05-07 07:43 24.53499 -66.69011 35096 ft 491 kts 169°
2026-05-07 07:43 24.46785 -66.67592 35098 ft 491 kts 169°
2026-05-07 07:44 24.40070 -66.66169 35097 ft 491 kts 169°
2026-05-07 07:44 24.33354 -66.64743 35098 ft 491 kts 169°
2026-05-07 07:45 24.26690 -66.63336 35100 ft 491 kts 169°
2026-05-07 07:45 24.19971 -66.61931 35103 ft 491 kts 169°
2026-05-07 07:46 24.13263 -66.60515 35106 ft 491 kts 169°
2026-05-07 07:46 24.06580 -66.59092 35102 ft 491 kts 169°
2026-05-07 07:47 23.99871 -66.57682 35095 ft 491 kts 169°
2026-05-07 07:47 23.93160 -66.56278 35117 ft 491 kts 169°
2026-05-07 07:48 23.86449 -66.54876 35114 ft 491 kts 169°
2026-05-07 07:48 23.79730 -66.53470 35109 ft 491 kts 168°
2026-05-07 07:49 23.73014 -66.52054 35098 ft 491 kts 168°
2026-05-07 07:49 23.66343 -66.50653 35100 ft 491 kts 169°
2026-05-07 07:50 23.59626 -66.49255 35103 ft 491 kts 169°
2026-05-07 07:50 23.52918 -66.47858 35102 ft 491 kts 169°
2026-05-07 07:51 23.46219 -66.46457 35099 ft 491 kts 169°
2026-05-07 07:51 23.39507 -66.45057 35097 ft 490 kts 169°
2026-05-07 07:52 23.32811 -66.43660 35103 ft 490 kts 169°
2026-05-07 07:52 23.26117 -66.42271 35101 ft 489 kts 169°
2026-05-07 07:53 23.19427 -66.40881 35094 ft 489 kts 169°
2026-05-07 07:53 23.12777 -66.39498 35092 ft 489 kts 169°
2026-05-07 07:54 23.06092 -66.38119 35098 ft 489 kts 169°
2026-05-07 07:54 22.99410 -66.36739 35097 ft 489 kts 169°
2026-05-07 07:55 22.92732 -66.35356 35099 ft 488 kts 169°
2026-05-07 07:55 22.86054 -66.33979 35096 ft 488 kts 169°
2026-05-07 07:56 22.79377 -66.32604 35097 ft 488 kts 169°
2026-05-07 07:56 22.72700 -66.31224 35091 ft 488 kts 169°
2026-05-07 07:57 22.66032 -66.29846 35090 ft 488 kts 169°
2026-05-07 07:57 22.59348 -66.28473 35095 ft 488 kts 169°
2026-05-07 07:58 22.52671 -66.27101 35094 ft 488 kts 169°
2026-05-07 07:58 22.47122 -66.25955 35089 ft 488 kts 169°
2026-05-07 07:59 22.40451 -66.24580 35110 ft 488 kts 170°
2026-05-07 07:59 22.32699 -66.22995 35107 ft 487 kts 170°
2026-05-07 08:00 22.27123 -66.21851 35100 ft 487 kts 170°
2026-05-07 08:00 22.20468 -66.20490 35092 ft 486 kts 170°
2026-05-07 08:01 22.13856 -66.19142 35101 ft 486 kts 170°
2026-05-07 08:01 22.07214 -66.17790 35101 ft 485 kts 170°
2026-05-07 08:02 22.00574 -66.16446 35096 ft 485 kts 170°
2026-05-07 08:02 21.93931 -66.15096 35101 ft 485 kts 170°
2026-05-07 08:03 21.87299 -66.13737 35093 ft 485 kts 170°
2026-05-07 08:03 21.80670 -66.12376 35090 ft 485 kts 170°
2026-05-07 08:04 21.74039 -66.11023 35100 ft 485 kts 170°
2026-05-07 08:04 21.67408 -66.09679 35100 ft 485 kts 170°
2026-05-07 08:05 21.60775 -66.08345 35094 ft 485 kts 170°
2026-05-07 08:05 21.54145 -66.07005 35094 ft 485 kts 170°
2026-05-07 08:06 21.47587 -66.05351 35091 ft 485 kts 159°
2026-05-07 08:06 21.41729 -66.01938 35083 ft 483 kts 141°
2026-05-07 08:07 21.36349 -65.97625 35089 ft 483 kts 142°
2026-05-07 08:07 21.30946 -65.93337 35085 ft 483 kts 142°
2026-05-07 08:08 21.25548 -65.89051 35082 ft 483 kts 143°
2026-05-07 08:08 21.20141 -65.84762 35090 ft 483 kts 142°
2026-05-07 08:09 21.14741 -65.80482 35091 ft 483 kts 143°
2026-05-07 08:09 21.09338 -65.76209 35094 ft 483 kts 143°
2026-05-07 08:10 21.03929 -65.71922 35087 ft 483 kts 142°
2026-05-07 08:10 20.98538 -65.67652 35087 ft 482 kts 143°
2026-05-07 08:11 20.93141 -65.63380 35082 ft 482 kts 143°
2026-05-07 08:11 20.87736 -65.59113 35095 ft 482 kts 143°
2026-05-07 08:12 20.82340 -65.54860 35093 ft 482 kts 143°
2026-05-07 08:12 20.76943 -65.50615 35092 ft 481 kts 143°
2026-05-07 08:13 20.71585 -65.46388 35091 ft 481 kts 143°
2026-05-07 08:13 20.66199 -65.42152 35099 ft 481 kts 143°
2026-05-07 08:14 20.60806 -65.37916 35086 ft 481 kts 143°
2026-05-07 08:14 20.55408 -65.33678 35086 ft 481 kts 143°
2026-05-07 08:15 20.50025 -65.29453 35098 ft 481 kts 143°
2026-05-07 08:15 20.44636 -65.25228 35100 ft 480 kts 144°
2026-05-07 08:16 20.39252 -65.21009 35098 ft 480 kts 144°
2026-05-07 08:16 20.33867 -65.16798 35092 ft 480 kts 144°
2026-05-07 08:17 20.28481 -65.12595 35097 ft 480 kts 144°
2026-05-07 08:17 20.23096 -65.08390 35092 ft 480 kts 144°
2026-05-07 08:18 20.17714 -65.04186 35095 ft 480 kts 144°
2026-05-07 08:18 20.12327 -64.99984 35085 ft 479 kts 144°
2026-05-07 08:19 20.06946 -64.95793 35093 ft 479 kts 144°
2026-05-07 08:19 20.01566 -64.91605 35093 ft 479 kts 144°
2026-05-07 08:20 19.96190 -64.87428 35089 ft 479 kts 144°
2026-05-07 08:20 19.90843 -64.83269 35089 ft 479 kts 144°
2026-05-07 08:21 19.85460 -64.79085 35093 ft 479 kts 144°
2026-05-07 08:21 19.80081 -64.74910 35092 ft 479 kts 144°
2026-05-07 08:22 19.74697 -64.70744 35090 ft 479 kts 144°
2026-05-07 08:22 19.69316 -64.66579 35085 ft 477 kts 144°
2026-05-07 08:22 19.66653 -64.64515 34810 ft 471 kts 144°
2026-05-07 08:23 19.64014 -64.62469 34435 ft 467 kts 144°
2026-05-07 08:23 19.61436 -64.60474 34037 ft 463 kts 144°
2026-05-07 08:23 19.58803 -64.58442 33568 ft 460 kts 144°
2026-05-07 08:23 19.56233 -64.56458 33127 ft 456 kts 144°
2026-05-07 08:24 19.53703 -64.54510 32703 ft 453 kts 144°
2026-05-07 08:24 19.51166 -64.52554 32289 ft 449 kts 144°
2026-05-07 08:24 19.48649 -64.50612 31878 ft 446 kts 144°
2026-05-07 08:24 19.46145 -64.48682 31479 ft 442 kts 144°
2026-05-07 08:25 19.43666 -64.46771 31091 ft 439 kts 144°
2026-05-07 08:25 19.41205 -64.44873 30716 ft 436 kts 143°
2026-05-07 08:25 19.38759 -64.42988 30353 ft 433 kts 143°
2026-05-07 08:25 19.36332 -64.41119 29971 ft 430 kts 143°
2026-05-07 08:26 19.31529 -64.37418 29163 ft 424 kts 143°
2026-05-07 08:26 19.29152 -64.35587 28796 ft 421 kts 144°
2026-05-07 08:26 19.26792 -64.33769 28434 ft 418 kts 144°
2026-05-07 08:27 19.24454 -64.31970 28090 ft 415 kts 144°
2026-05-07 08:27 19.22145 -64.30195 27736 ft 413 kts 144°
2026-05-07 08:27 19.19821 -64.28413 27052 ft 419 kts 144°
2026-05-07 08:27 19.17441 -64.26591 26404 ft 424 kts 144°
2026-05-07 08:28 19.15056 -64.24761 25959 ft 423 kts 144°
2026-05-07 08:28 19.12682 -64.22938 25557 ft 420 kts 144°
2026-05-07 08:28 19.10337 -64.21137 24902 ft 414 kts 145°
2026-05-07 08:28 19.08017 -64.19356 24210 ft 410 kts 145°
2026-05-07 08:29 19.05724 -64.17596 23509 ft 405 kts 145°
2026-05-07 08:29 19.03458 -64.15855 22709 ft 400 kts 145°
2026-05-07 08:29 19.01220 -64.14137 21920 ft 395 kts 145°
2026-05-07 08:29 18.99007 -64.12443 21141 ft 390 kts 145°
2026-05-07 08:30 18.96819 -64.10771 20386 ft 388 kts 145°
2026-05-07 08:30 18.94636 -64.09104 19974 ft 385 kts 145°
2026-05-07 08:30 18.92471 -64.07450 19567 ft 383 kts 145°
2026-05-07 08:30 18.90320 -64.05808 19160 ft 380 kts 145°
2026-05-07 08:31 18.88185 -64.04173 18752 ft 378 kts 144°
2026-05-07 08:31 18.86058 -64.02544 18343 ft 376 kts 144°
2026-05-07 08:31 18.83944 -64.00931 17881 ft 374 kts 144°
2026-05-07 08:31 18.81870 -63.99348 17435 ft 371 kts 144°
2026-05-07 08:32 18.79784 -63.97757 17022 ft 368 kts 144°
2026-05-07 08:32 18.77714 -63.96176 16603 ft 366 kts 144°
2026-05-07 08:32 18.75660 -63.94607 16187 ft 363 kts 144°
2026-05-07 08:32 18.73618 -63.93048 15759 ft 361 kts 144°
2026-05-07 08:33 18.71585 -63.91499 15348 ft 359 kts 144°
2026-05-07 08:33 18.69564 -63.89964 14947 ft 357 kts 144°
2026-05-07 08:33 18.67561 -63.88441 14599 ft 353 kts 144°
2026-05-07 08:33 18.65579 -63.86933 14225 ft 350 kts 144°
2026-05-07 08:34 18.63614 -63.85436 13851 ft 347 kts 144°
2026-05-07 08:34 18.61654 -63.83948 13400 ft 346 kts 144°
2026-05-07 08:34 18.59709 -63.82468 12969 ft 344 kts 144°
2026-05-07 08:34 18.57776 -63.80992 12582 ft 341 kts 144°
2026-05-07 08:35 18.55884 -63.79549 12156 ft 340 kts 144°
2026-05-07 08:35 18.53968 -63.78090 11785 ft 338 kts 144°
2026-05-07 08:35 18.52080 -63.76652 11537 ft 331 kts 144°
2026-05-07 08:35 18.50232 -63.75243 11291 ft 325 kts 143°
2026-05-07 08:36 18.48422 -63.73867 11108 ft 316 kts 144°
2026-05-07 08:36 18.46666 -63.72533 11065 ft 307 kts 143°
2026-05-07 08:36 18.44921 -63.71207 11074 ft 310 kts 143°
2026-05-07 08:36 18.43169 -63.69877 11075 ft 311 kts 143°
2026-05-07 08:37 18.41414 -63.68546 11072 ft 311 kts 143°
2026-05-07 08:37 18.39666 -63.67220 11075 ft 309 kts 143°
2026-05-07 08:37 18.38017 -63.65770 10933 ft 310 kts 136°
2026-05-07 08:37 18.36464 -63.64234 10559 ft 301 kts 136°
2026-05-07 08:38 18.34976 -63.62753 10237 ft 288 kts 135°
2026-05-07 08:38 18.33531 -63.61313 9827 ft 282 kts 135°
2026-05-07 08:38 18.32136 -63.59926 9488 ft 271 kts 135°
2026-05-07 08:38 18.30792 -63.58592 9199 ft 260 kts 135°
2026-05-07 08:39 18.29514 -63.57321 8932 ft 252 kts 135°
2026-05-07 08:39 18.28245 -63.56060 8658 ft 252 kts 135°
2026-05-07 08:39 18.26956 -63.54778 8386 ft 256 kts 136°
2026-05-07 08:39 18.25660 -63.53491 8109 ft 255 kts 135°
2026-05-07 08:40 18.24370 -63.52208 7833 ft 255 kts 135°
2026-05-07 08:40 18.23085 -63.50932 7548 ft 254 kts 135°
2026-05-07 08:40 18.21804 -63.49660 7275 ft 252 kts 135°
2026-05-07 08:40 18.20531 -63.48395 7018 ft 250 kts 136°
2026-05-07 08:41 18.19292 -63.47170 6761 ft 239 kts 136°
2026-05-07 08:41 18.18107 -63.45997 6501 ft 229 kts 136°
2026-05-07 08:41 18.16972 -63.44874 6255 ft 221 kts 136°
2026-05-07 08:41 18.15859 -63.43774 6011 ft 218 kts 136°
2026-05-07 08:42 18.14762 -63.42687 5776 ft 215 kts 136°
2026-05-07 08:42 18.13692 -63.41627 5543 ft 212 kts 136°
2026-05-07 08:42 18.12619 -63.40563 5318 ft 211 kts 135°
2026-05-07 08:42 18.11551 -63.39506 5093 ft 210 kts 136°
2026-05-07 08:43 18.10490 -63.38457 4868 ft 209 kts 135°
2026-05-07 08:43 18.09434 -63.37411 4641 ft 208 kts 135°
2026-05-07 08:43 18.08387 -63.36374 4414 ft 207 kts 135°
2026-05-07 08:43 18.07341 -63.35340 4192 ft 206 kts 135°
2026-05-07 08:44 18.06295 -63.34305 3965 ft 205 kts 135°
2026-05-07 08:44 18.05257 -63.33282 3741 ft 204 kts 134°
2026-05-07 08:44 18.04227 -63.32268 3527 ft 202 kts 134°
2026-05-07 08:44 18.03217 -63.31272 3314 ft 201 kts 134°
2026-05-07 08:45 18.02328 -63.30184 3131 ft 192 kts 118°
2026-05-07 08:45 18.01822 -63.28924 2886 ft 184 kts 101°
2026-05-07 08:45 18.01699 -63.27616 2695 ft 177 kts 85°
2026-05-07 08:45 18.01868 -63.26352 2499 ft 172 kts 80°
2026-05-07 08:46 18.02050 -63.25125 2320 ft 169 kts 81°
2026-05-07 08:46 18.02225 -63.23929 2127 ft 159 kts 82°
2026-05-07 08:46 18.02383 -63.22832 1979 ft 146 kts 82°